Lid_Strength_Index
10 12 14 13 13 12 12 13 13 11 9 10 10 10 9 7 7 8 7 7 6 6 4 3 3 3 4 5 5 3 3 3 3 4 5 5 6 5 6 2 1 1 1 2
11 13 10 10 11 11 12 13 13 11 9 9 10 11 9 8 8 7 7 7 6 6 5 4 4 5 4 6 6 5 5 4 3 3 4 5 5 4 2 3 2 2 2 2
12 10 8 9 11 11 12 13 13 11 9 10 10 12 11 8 7 7 6 6 6 6 6 5 5 5 5 5 6 6 5 4 4 4 5 6 5 3 3 3 3 3 2 2
11 9 9 10 10 10 13 10 10 10 11 14 13 17 15 10 9 8 7 7 6 6 5 5 5 6 5 5 5 6 6 6 6 5 4 5 4 4 4 4 4 4 3 2
11 10 10 10 10 9 11 10 10 10 13 14 15 15 14 13 11 9 8 7 6 5 5 6 6 6 5 5 5 5 5 5 5 6 5 5 5 4 3 5 4 4 3 2
10 8 9 9 8 9 8 10 12 13 14 16 15 15 15 13 10 8 7 7 6 5 6 6 6 6 6 6 6 5 6 6 5 5 5 5 5 4 4 5 5 4 4 3
10 10 9 8 10 10 11 13 16 16 17 16 14 15 13 11 9 9 7 7 6 5 6 6 7 7 7 6 6 6 6 6 4 5 6 4 4 4 4 4 4 4 4 5
13 13 10 8 10 11 13 13 16 18 18 16 13 15 12 8 9 7 8 6 6 6 6 6 7 7 6 6 6 6 6 4 4 4 4 4 4 4 4 4 4 4 4 5
13 12 9 8 8 9 12 14 13 15 16 16 15 12 9 8 8 8 8 7 7 6 7 7 7 6 6 6 6 6 4 3 4 4 3 4 4 4 4 4 4 5 5 2
10 13 9 8 9 9 11 11 14 15 18 18 16 15 13 11 10 9 9 8 7 7 7 8 7 6 6 6 5 4 3 3 3 3 4 3 4 4 4 4 4 4 3 4
11 12 11 9 11 12 11 13 14 14 15 17 18 15 11 10 9 9 8 7 7 6 7 7 7 7 6 5 5 4 3 4 4 3 4 3 3 3 4 3 3 5 5 5
11 12 14 11 9 9 10 12 13 15 16 16 16 16 10 8 9 8 8 7 6 6 6 7 7 7 6 5 5 4 4 4 4 4 4 4 4 3 3 4 5 6 6 4
10 13 15 14 12 10 11 11 12 14 15 16 16 15 9 9 9 8 8 8 6 6 6 7 7 7 6 6 5 4 4 4 4 4 4 4 4 4 4 4 5 4 4 3
7 13 14 15 13 12 12 11 11 12 15 15 15 13 10 10 9 8 7 7 6 6 6 7 7 7 7 6 5 4 5 4 4 4 4 4 4 5 4 5 4 4 4 5
11 13 12 12 11 10 11 11 11 12 12 13 13 13 11 10 9 9 8 7 7 6 6 6 6 7 8 7 5 5 4 4 3 4 4 5 5 4 4 5 5 5 5 6
10 13 13 13 10 10 11 10 10 11 11 12 11 12 10 9 9 9 8 8 7 7 6 6 6 7 7 6 5 5 4 4 4 4 5 4 4 4 5 6 6 6 8 7
11 12 13 15 11 11 14 11 10 10 10 10 13 11 9 9 8 8 8 7 6 6 6 6 6 6 6 5 5 5 4 4 4 4 4 4 5 6 6 7 8 8 8 8
11 12 13 15 14 18 12 9 9 10 9 9 9 9 9 9 9 8 7 6 6 6 5 5 5 5 5 5 4 4 4 4 4 4 5 6 6 7 7 8 8 8 8 8
9 11 14 16 16 13 11 10 10 11 10 9 9 9 8 8 8 8 6 6 5 5 4 4 4 4 4 4 4 4 5 5 6 7 7 7 6 7 8 8 8 8 8 9
9 9 12 15 18 19 12 8 7 8 13 7 8 8 9 8 11 9 6 5 5 4 4 4 4 4 4 5 4 5 7 7 8 7 6 6 6 7 8 8 7 8 9 9
12 12 15 16 17 14 9 7 6 14 13 8 8 9 9 9 8 7 5 6 5 5 4 4 4 5 6 6 6 7 8 8 7 6 6 6 7 8 8 7 8 10 9 9
13 14 15 14 17 17 8 8 11 9 8 8 8 7 8 8 6 6 5 7 6 7 6 5 6 7 6 6 7 7 8 7 6 7 7 7 8 7 7 8 10 10 9 9
14 11 13 12 13 10 8 8 7 6 7 7 7 7 6 6 6 5 6 7 6 7 7 7 7 7 7 6 6 8 8 7 7 7 8 8 8 8 8 9 9 9 9 9
11 9 12 11 11 9 8 7 6 6 7 6 6 6 5 7 5 6 6 7 7 7 7 6 6 7 8 7 7 7 7 7 7 8 9 9 9 9 8 8 8 8 9 9
11 10 11 11 9 8 7 6 6 6 5 5 5 6 5 6 6 6 6 6 7 7 6 6 6 6 7 7 7 7 7 7 8 8 9 9 9 9 8 7 7 7 8 8
10 11 11 12 8 9 9 7 5 6 6 5 5 6 5 5 5 5 6 6 6 6 6 5 6 7 8 7 7 7 6 7 8 8 9 9 9 8 7 6 6 6 6 7